Location: Unspecified
(42.1900°N, 71.3291°W)
Time: 17:35:21
(UTC-04:00)

Cosmos 1674 - Visible Passes

Search period start: 28 March 2017 00:00
Search period end: 07 April 2017 00:00
Orbit: 498 x 524 km, 82.5° (Epoch: 27 March)

Date Brightness Start Highest point End Pass type
(mag) Time Alt. Az. Time Alt. Az. Time Alt. Az.
28 Mar 3.2 19:53:25 10° N 19:56:58 37° ENE 20:00:31 10° SSE visible
28 Mar 5.7 21:30:15 10° NW 21:32:13 14° W 21:34:12 10° WSW visible
29 Mar 3.6 19:37:08 10° NNE 19:40:30 29° ENE 19:43:53 10° SE visible
29 Mar 5.5 21:13:20 10° NW 21:15:53 17° W 21:18:25 10° SW visible
30 Mar 5.2 20:56:34 10° NW 20:59:31 22° W 21:02:28 10° SW visible
31 Mar 4.9 20:39:53 10° NNW 20:43:09 27° W 20:46:23 10° SSW visible
01 Apr 4.4 20:23:16 10° NNW 20:26:45 34° W 20:30:14 10° SSW visible
02 Apr 4.0 20:06:42 10° NNW 20:10:21 44° W 20:14:00 10° SSW visible
03 Apr 3.4 19:50:11 10° NNW 19:53:57 57° W 19:57:42 10° S visible
